Niagara Falls, NY

5:07 PM EDT on September 27, 2016 (GMT -0400)
Niagara Falls International

Weather History for KIAG - April, 2014

Change the Weather History Date:

Friday, April 18, 2014

  Actual Average Record
Temperature  
Mean Temperature 49 °F -  
Max Temperature 57 °F 55 °F 81 °F (2002)
Min Temperature 39 °F 35 °F 29 °F (1990)
Degree Days  
Heating Degree Days 16    
Moisture  
Dew Point 33 °F    
Average Humidity 58    
Maximum Humidity 86    
Minimum Humidity 42    
Precipitation  
Precipitation 0.00 in - - ()
Sea Level Pressure  
Sea Level Pressure 30.28 in    
Wind  
Wind Speed 10 mph (WSW)    
Max Wind Speed 17 mph    
Max Gust Speed 22 mph    
Visibility 10 miles    
Events Rain    
Averages and records for this station are not official NWS values.
T = Trace of Precipitation, MM = Missing Value Source: NWS Daily Summary

Daily Weather History Graph

Daily Weather History Graph

Search for Another Location

Airport or City:

Trip Planner

Search our weather history database for the weather conditions in past years. The results will help you decide how hot, cold, wet, or windy it might be!

Date:

Astronomy

Apr. 18, 2014 Rise Set
Actual Time 6:28 AM EDT 8:01 PM EDT
Civil Twilight 5:59 AM EDT 8:31 PM EDT
Nautical Twilight 5:23 AM EDT 9:08 PM EDT
Astronomical Twilight 4:44 AM EDT 9:46 PM EDT
Moon 11:49 PM EDT (4/18) 8:46 AM EDT (4/18)
Length of Visible Light 14h 32m
Length of Day
13h 33m
Waning Gibbous, 87% of the Moon is Illuminated
Apr 18
Waning Gibbous
Apr 22
Last Quarter
Apr 29
New
May 6
First Quarter
May 14
Full

Hourly Weather History & Observations

Time (EDT) Temp. Windchill Dew Point Humidity Pressure Visibility Wind Dir Wind Speed Gust Speed Precip Events Conditions
12:53 AM 48.0 °F - 26.1 °F 42% 30.37 in 10.0 mi South 12.7 mph - N/A   Clear
1:53 AM 46.9 °F - 26.1 °F 44% 30.34 in 10.0 mi South 11.5 mph - N/A   Clear
2:53 AM 46.9 °F - 27.0 °F 46% 30.32 in 10.0 mi South 10.4 mph - N/A   Clear
3:53 AM 46.0 °F 41.0 °F 27.0 °F 47% 30.29 in 10.0 mi South 10.4 mph - N/A   Clear
4:53 AM 45.0 °F 40.1 °F 28.0 °F 52% 30.29 in 10.0 mi SSW 9.2 mph - N/A   Clear
5:53 AM 44.1 °F 39.0 °F 28.0 °F 53% 30.28 in 10.0 mi South 9.2 mph - N/A   Clear
6:53 AM 44.1 °F 39.0 °F 28.0 °F 53% 30.29 in 10.0 mi South 9.2 mph - N/A   Clear
7:01 AM 44.1 °F 39.0 °F 28.0 °F 53% 30.27 in 10.0 mi South 9.2 mph - N/A   Mostly Cloudy
7:53 AM 45.0 °F 38.9 °F 28.9 °F 53% 30.30 in 10.0 mi South 12.7 mph - N/A   Overcast
8:53 AM 48.0 °F - 30.0 °F 50% 30.30 in 10.0 mi South 17.3 mph - N/A   Overcast
9:53 AM 50.0 °F - 30.9 °F 48% 30.31 in 10.0 mi WSW 9.2 mph - N/A   Overcast
10:53 AM 53.1 °F - 32.0 °F 45% 30.30 in 10.0 mi WSW 8.1 mph - N/A   Overcast
11:53 AM 54.0 °F - 32.0 °F 43% 30.28 in 10.0 mi West 11.5 mph 21.9 mph N/A   Overcast
12:53 PM 55.0 °F - 33.1 °F 43% 30.26 in 10.0 mi SW 12.7 mph - N/A   Overcast
1:53 PM 57.0 °F - 35.1 °F 44% 30.25 in 10.0 mi Variable 4.6 mph - N/A   Overcast
2:53 PM 57.0 °F - 35.1 °F 44% 30.24 in 10.0 mi West 11.5 mph - N/A   Mostly Cloudy
3:53 PM 57.0 °F - 37.0 °F 47% 30.23 in 10.0 mi NNW 6.9 mph - N/A   Overcast
4:16 PM 55.0 °F - 39.0 °F 55% 30.21 in 10.0 mi NW 13.8 mph - 0.00 in Rain Light Rain
4:53 PM 52.0 °F - 41.0 °F 66% 30.24 in 10.0 mi NNW 10.4 mph - 0.00 in Rain Light Rain
5:17 PM 50.0 °F - 39.9 °F 68% 30.22 in 10.0 mi North 10.4 mph - 0.00 in   Overcast
5:53 PM 50.0 °F - 37.9 °F 63% 30.25 in 10.0 mi NNW 6.9 mph - 0.00 in   Mostly Cloudy
6:53 PM 48.9 °F - 37.9 °F 66% 30.26 in 10.0 mi NNW 17.3 mph - N/A   Mostly Cloudy
7:30 PM 46.0 °F 41.4 °F 39.9 °F 79% 30.24 in 8.0 mi North 9.2 mph - N/A   Mostly Cloudy
7:37 PM 46.0 °F 43.1 °F 39.9 °F 79% 30.24 in 7.0 mi North 5.8 mph - N/A   Mostly Cloudy
7:53 PM 46.0 °F 43.9 °F 39.9 °F 79% 30.27 in 8.0 mi North 4.6 mph - N/A   Mostly Cloudy
8:53 PM 44.1 °F - 37.0 °F 76% 30.27 in 9.0 mi Calm Calm - N/A   Scattered Clouds
9:53 PM 41.0 °F 38.0 °F 37.0 °F 86% 30.29 in 9.0 mi WSW 4.6 mph - N/A   Mostly Cloudy
10:53 PM 42.8 °F 37.5 °F 35.6 °F 76% 30.27 in 10.0 mi WNW 9.2 mph - N/A   Partly Cloudy
11:53 PM 39.9 °F 33.9 °F 30.9 °F 70% 30.31 in 10.0 mi NW 9.2 mph - N/A   Clear